M0OAB-1 Weather Reports


Display with metric or nautical units.
time (UTC)temp
F
wind
direction
speed
MPH
gust
MPH
rain 1hr
in
rain 24hr
in
rain mn
in
humidity
%
barometer
mb
20260510125005 55 5 7.0 10.0 0.00 0.00 0.00 58 1002.5
20260510124604 55 9 7.0 10.0 0.00 0.00 0.00 59 1002.6
20260510124405 55 7 7.0 10.0 0.00 0.00 0.00 59 1002.6
20260510124204 55 355 6.0 10.0 0.00 0.00 0.00 60 1002.6
20260510124005 55 26 7.0 11.0 0.00 0.00 0.00 60 1002.6
20260510123805 55 39 7.0 11.0 0.00 0.00 0.00 60 1002.6
20260510123604 55 55 7.0 11.0 0.00 0.00 0.00 60 1002.7
20260510123405 55 48 7.0 11.0 0.00 0.00 0.00 60 1002.6
20260510123205 55 64 7.0 11.0 0.00 0.00 0.00 59 1002.5
20260510123004 55 39 8.0 11.0 0.00 0.00 0.00 59 1002.5
20260510122605 56 355 8.0 10.0 0.00 0.00 0.00 59 1002.5
20260510122405 56 344 7.0 10.0 0.00 0.00 0.00 60 1002.5
20260510122004 56 336 6.0 8.0 0.00 0.00 0.00 60 1002.7
20260510121804 56 345 6.0 8.0 0.00 0.00 0.00 60 1002.6
20260510121405 56 89 6.0 8.0 0.00 0.00 0.00 60 1002.6
20260510121204 55 90 5.0 8.0 0.00 0.00 0.00 61 1002.6
20260510121004 55 94 6.0 10.0 0.00 0.00 0.00 61 1002.7
20260510120804 55 82 5.0 10.0 0.00 0.00 0.00 61 1002.8
20260510120605 55 55 5.0 10.0 0.00 0.00 0.00 62 1002.6
20260510120404 55 42 5.0 10.0 0.00 0.00 0.00 62 1002.8
20260510120204 55 24 5.0 10.0 0.00 0.00 0.00 62 1002.8
20260510120004 55 17 4.0 8.0 0.00 0.00 0.00 62 1002.7
20260510115805 55 28 5.0 8.0 0.00 0.00 0.00 61 1002.8
20260510115605 54 34 6.0 8.0 0.00 0.00 0.00 61 1003.0
20260510115405 54 46 6.0 8.0 0.00 0.00 0.00 61 1002.8
20260510115204 54 37 6.0 8.0 0.00 0.00 0.00 61 1002.9
20260510115004 54 24 6.0 8.0 0.00 0.00 0.00 61 1003.0
20260510114805 55 21 6.0 8.0 0.00 0.00 0.00 62 1003.0
20260510114604 55 34 6.0 8.0 0.00 0.00 0.00 62 1003.0
20260510114205 55 326 5.0 8.0 0.00 0.00 0.00 62 1003.1
20260510114005 55 97 5.0 8.0 0.00 0.00 0.00 62 1003.1
20260510113805 55 109 6.0 8.0 0.00 0.00 0.00 62 1003.1
20260510113604 55 66 7.0 8.0 0.00 0.00 0.00 62 1003.1
20260510113205 55 74 7.0 8.0 0.00 0.00 0.00 62 1003.0
20260510113005 55 61 7.0 8.0 0.00 0.00 0.00 61 1003.2
20260510112804 55 47 7.0 8.0 0.00 0.00 0.00 61 1003.1
20260510112605 55 57 6.0 8.0 0.00 0.00 0.00 61 1003.2
20260510112405 55 84 6.0 8.0 0.00 0.00 0.00 61 1003.2
20260510112005 56 111 5.0 8.0 0.00 0.00 0.00 62 1003.3
20260510111804 56 158 5.0 8.0 0.00 0.00 0.00 62 1003.2
20260510111604 56 162 5.0 8.0 0.00 0.00 0.00 61 1003.2
20260510111404 56 204 5.0 8.0 0.00 0.00 0.00 61 1003.2
20260510111204 56 205 4.0 6.0 0.00 0.00 0.00 61 1003.2
20260510111005 56 149 4.0 6.0 0.00 0.00 0.00 62 1003.2
20260510110804 56 67 5.0 9.0 0.00 0.00 0.00 62 1003.2
20260510110405 56 55 5.0 9.0 0.00 0.00 0.00 62 1003.2
20260510110204 56 50 5.0 9.0 0.00 0.00 0.00 62 1003.2
20260510105804 56 83 5.0 8.0 0.00 0.00 0.00 61 1003.2
20260510105604 56 82 6.0 11.0 0.00 0.00 0.00 62 1003.4
20260510105405 56 76 5.0 11.0 0.00 0.00 0.00 62 1003.1
20260510105205 56 29 6.0 11.0 0.00 0.00 0.00 62 1003.3
20260510105004 56 10 6.0 11.0 0.00 0.00 0.00 62 1003.3
20260510104804 56 347 6.0 11.0 0.00 0.00 0.00 62 1003.1
20260510104605 56 346 6.0 9.0 0.00 0.00 0.00 62 1003.2
20260510104405 56 4 6.0 9.0 0.00 0.00 0.00 63 1003.2
20260510104205 56 26 6.0 9.0 0.00 0.00 0.00 63 1003.1
20260510104004 56 41 6.0 9.0 0.00 0.00 0.00 62 1003.3
20260510103605 55 106 5.0 8.0 0.00 0.00 0.00 62 1003.0
20260510103404 55 100 5.0 8.0 0.00 0.00 0.00 62 1003.2
20260510103204 55 83 6.0 10.0 0.00 0.00 0.00 62 1003.3
20260510103005 55 73 6.0 10.0 0.00 0.00 0.00 62 1003.1
20260510102805 55 59 6.0 10.0 0.00 0.00 0.00 62 1003.3
20260510102604 55 44 6.0 10.0 0.00 0.00 0.00 62 1003.3
20260510102404 55 59 6.0 10.0 0.00 0.00 0.00 62 1003.4
20260510102205 55 65 6.0 10.0 0.00 0.00 0.00 62 1003.3
20260510102005 55 97 5.0 8.0 0.00 0.00 0.00 62 1003.3
20260510101605 55 103 5.0 8.0 0.00 0.00 0.00 63 1003.3
20260510101404 55 54 5.0 6.0 0.00 0.00 0.00 63 1003.4
20260510101204 55 76 5.0 8.0 0.00 0.00 0.00 63 1003.4
20260510100804 55 75 6.0 11.0 0.00 0.00 0.00 63 1003.5
20260510100605 55 73 7.0 12.0 0.00 0.00 0.00 63 1003.3
20260510100205 55 97 6.0 12.0 0.00 0.00 0.00 63 1003.4
20260510100005 55 49 6.0 12.0 0.00 0.00 0.00 64 1003.5
20260510095805 55 310 7.0 12.0 0.00 0.00 0.00 64 1003.5
20260510095404 55 359 6.0 12.0 0.00 0.00 0.00 65 1003.5
20260510095004 54 43 5.0 12.0 0.00 0.00 0.00 65 1003.4
20260510094805 54 65 5.0 9.0 0.00 0.00 0.00 65 1003.3
20260510094404 54 33 5.0 9.0 0.00 0.00 0.00 70 1003.4
20260510094204 54 356 5.0 8.0 0.00 0.00 0.00 70 1003.4
20260510094004 54 353 5.0 8.0 0.00 0.00 0.00 70 1003.5
20260510093804 54 352 5.0 8.0 0.00 0.00 0.00 70 1003.6
20260510093604 54 339 5.0 8.0 0.00 0.00 0.00 70 1003.5
20260510093405 54 335 5.0 10.0 0.00 0.00 0.00 70 1003.5
20260510093204 54 16 6.0 10.0 0.00 0.00 0.00 70 1003.6
20260510093004 54 25 6.0 10.0 0.00 0.00 0.00 70 1003.7
20260510092805 54 22 7.0 10.0 0.00 0.00 0.00 70 1003.6
20260510092604 54 27 6.0 10.0 0.00 0.00 0.00 70 1003.8
20260510092405 54 36 7.0 10.0 0.00 0.00 0.00 70 1003.5
20260510092204 54 17 7.0 10.0 0.00 0.00 0.00 70 1003.4
20260510092004 54 12 7.0 10.0 0.00 0.00 0.00 70 1003.5
20260510091804 54 23 6.0 9.0 0.00 0.00 0.00 70 1003.6
20260510091605 54 35 7.0 9.0 0.00 0.00 0.00 70 1003.4
20260510091404 54 47 7.0 9.0 0.00 0.00 0.00 70 1003.5
20260510091205 54 96 7.0 9.0 0.00 0.00 0.00 70 1003.7
20260510091005 54 139 7.0 10.0 0.00 0.00 0.00 70 1003.6
20260510090804 54 98 7.0 10.0 0.00 0.00 0.00 70 1003.6
20260510090604 54 77 7.0 10.0 0.00 0.00 0.00 70 1003.6
20260510090404 54 78 7.0 10.0 0.00 0.00 0.00 70 1003.8
20260510090205 54 60 7.0 10.0 0.00 0.00 0.00 70 1003.7
20260510090004 54 43 6.0 9.0 0.00 0.00 0.00 71 1003.7
20260510085805 54 11 7.0 9.0 0.00 0.00 0.00 71 1003.6
20260510085605 54 34 7.0 11.0 0.00 0.00 0.00 71 1003.7
20260510085204 53 19 8.0 11.0 0.00 0.00 0.00 71 1003.8
20260510085004 53 23 7.0 11.0 0.00 0.00 0.00 71 1003.7
20260510084804 53 55 7.0 11.0 0.00 0.00 0.00 71 1003.8
20260510084405 53 25 6.0 8.0 0.00 0.00 0.00 72 1003.8
20260510084204 53 34 6.0 14.0 0.00 0.00 0.00 72 1003.8
20260510083804 53 41 7.0 14.0 0.00 0.00 0.00 72 1003.8
20260510083604 53 40 7.0 14.0 0.00 0.00 0.00 72 1003.7
20260510083405 53 54 7.0 14.0 0.00 0.00 0.00 72 1003.8
20260510083204 53 72 7.0 14.0 0.00 0.00 0.00 72 1003.8
20260510083005 53 71 6.0 8.0 0.00 0.00 0.00 73 1003.9
20260510082804 53 81 6.0 8.0 0.00 0.00 0.00 73 1003.8
20260510082604 53 69 6.0 8.0 0.00 0.00 0.00 73 1003.8
20260510082205 53 69 5.0 8.0 0.00 0.00 0.00 73 1003.7
20260510082004 53 49 5.0 8.0 0.00 0.00 0.00 73 1003.8
20260510081804 53 25 5.0 8.0 0.00 0.00 0.00 73 1003.8
20260510081404 53 356 6.0 11.0 0.00 0.00 0.00 73 1003.8
20260510081005 52 320 6.0 11.0 0.00 0.00 0.00 74 1003.9
20260510080604 52 327 5.0 7.0 0.00 0.00 0.00 74 1003.7
20260510080404 52 338 5.0 7.0 0.00 0.00 0.00 74 1003.7
20260510080204 52 19 6.0 10.0 0.00 0.00 0.00 74 1003.9
20260510075805 52 82 7.0 11.0 0.00 0.00 0.00 75 1003.9
20260510075604 52 56 7.0 11.0 0.00 0.00 0.00 75 1003.8
20260510075205 52 92 7.0 11.0 0.00 0.00 0.00 75 1003.7
20260510075004 52 108 6.0 11.0 0.00 0.00 0.00 75 1003.7
20260510074804 52 120 7.0 9.0 0.00 0.00 0.00 75 1003.8
20260510074604 52 112 6.0 8.0 0.00 0.00 0.00 75 1003.8
20260510074404 52 109 7.0 10.0 0.00 0.00 0.00 75 1003.7
20260510074204 52 89 6.0 10.0 0.00 0.00 0.00 75 1003.8
20260510074004 52 53 6.0 10.0 0.00 0.00 0.00 76 1003.7
20260510073805 52 73 6.0 10.0 0.00 0.00 0.00 76 1003.8
20260510073604 52 296 5.0 10.0 0.00 0.00 0.00 76 1003.9
20260510073204 52 123 4.0 8.0 0.00 0.00 0.00 76 1003.9
20260510073004 51 97 5.0 8.0 0.00 0.00 0.00 76 1003.9
20260510072804 51 89 5.0 8.0 0.00 0.00 0.00 76 1003.9
20260510072405 51 287 6.0 10.0 0.00 0.00 0.00 77 1003.8
20260510072204 51 185 6.0 10.0 0.00 0.00 0.00 77 1003.8
20260510072004 51 214 6.0 10.0 0.00 0.00 0.00 77 1003.9
20260510071804 51 248 6.0 10.0 0.00 0.00 0.00 78 1003.8
20260510071605 51 133 5.0 10.0 0.00 0.00 0.00 78 1003.9
20260510071405 51 103 5.0 8.0 0.00 0.00 0.00 78 1003.9
20260510071204 51 77 5.0 8.0 0.00 0.00 0.00 78 1003.8
20260510070805 51 62 5.0 8.0 0.00 0.00 0.00 79 1003.8
20260510070204 51 35 7.0 13.0 0.00 0.00 0.00 80 1003.7
20260510070005 51 82 7.0 13.0 0.00 0.00 0.00 80 1003.6
20260510065804 51 90 7.0 13.0 0.00 0.00 0.00 80 1003.8
20260510065604 51 152 5.0 10.0 0.00 0.00 0.00 80 1003.7
20260510065204 51 109 4.0 6.0 0.00 0.00 0.00 81 1003.6
20260510065004 51 61 4.0 4.0 0.00 0.00 0.00 81 1003.8
20260510064804 51 34 4.0 7.0 0.00 0.00 0.00 81 1003.6
20260510064604 51 28 5.0 9.0 0.00 0.00 0.00 81 1003.6
20260510064404 50 34 5.0 9.0 0.00 0.00 0.00 81 1003.6
20260510064205 50 43 6.0 9.0 0.00 0.00 0.00 81 1003.6
20260510064004 50 59 6.0 9.0 0.00 0.00 0.00 82 1003.7
20260510063804 50 57 6.0 9.0 0.00 0.00 0.00 82 1003.6
20260510063605 50 55 6.0 9.0 0.00 0.00 0.00 82 1003.6
20260510063404 50 54 6.0 8.0 0.00 0.00 0.00 82 1003.5
20260510063004 50 349 6.0 8.0 0.00 0.00 0.00 82 1003.6
20260510062804 50 341 6.0 11.0 0.00 0.00 0.00 82 1003.6
20260510062604 50 359 6.0 11.0 0.00 0.00 0.00 82 1003.6
20260510062404 50 13 5.0 11.0 0.00 0.00 0.00 82 1003.4
20260510062004 50 59 5.0 11.0 0.00 0.00 0.00 83 1003.5
20260510061805 50 19 4.0 9.0 0.00 0.00 0.00 83 1003.6
20260510061605 50 304 4.0 9.0 0.00 0.00 0.00 83 1003.6
20260510061404 50 19 4.0 9.0 0.00 0.00 0.00 83 1003.6
20260510061204 50 343 4.0 9.0 0.00 0.00 0.00 83 1003.6
20260510061004 49 55 3.0 7.0 0.00 0.00 0.00 83 1003.7
20260510060804 49 295 3.0 6.0 0.00 0.00 0.00 83 1003.5
20260510060604 49 306 4.0 11.0 0.00 0.00 0.00 83 1003.6
20260510060405 49 321 5.0 11.0 0.00 0.00 0.00 83 1003.5
20260510060204 49 310 6.0 11.0 0.00 0.00 0.00 83 1003.6
20260510060005 49 301 6.0 11.0 0.00 0.00 0.00 83 1003.5
20260510055805 49 313 6.0 11.0 0.00 0.00 0.00 83 1003.5
20260510055404 49 310 5.0 8.0 0.00 0.00 0.00 83 1003.5
20260510055205 49 338 5.0 8.0 0.00 0.00 0.00 84 1003.6
20260510055005 49 342 5.0 9.0 0.00 0.00 0.00 84 1003.5
20260510054804 49 353 5.0 9.0 0.00 0.00 0.00 84 1003.5
20260510054404 49 131 5.0 9.0 0.00 0.00 0.00 84 1003.4
20260510054205 49 194 6.0 12.0 0.00 0.00 0.00 84 1003.4
20260510054004 49 209 6.0 12.0 0.00 0.00 0.00 84 1003.4
20260510053804 49 194 5.0 12.0 0.00 0.00 0.00 84 1003.5
20260510053604 49 246 6.0 12.0 0.00 0.00 0.00 84 1003.5
20260510053405 49 318 6.0 12.0 0.00 0.00 0.00 85 1003.4
20260510053204 49 354 5.0 8.0 0.00 0.00 0.00 85 1003.4
20260510053004 49 15 4.0 5.0 0.00 0.00 0.00 85 1003.4
20260510052804 49 28 5.0 6.0 0.00 0.00 0.00 85 1003.3
20260510052604 49 9 4.0 6.0 0.00 0.00 0.00 85 1003.4
20260510052404 49 330 5.0 8.0 0.00 0.00 0.00 85 1003.4
20260510052204 49 314 6.0 8.0 0.00 0.00 0.00 85 1003.4
20260510052004 49 259 5.0 8.0 0.00 0.00 0.00 85 1003.4
20260510051404 49 11 5.0 8.0 0.00 0.00 0.00 85 1003.3
20260510051205 49 21 4.0 7.0 0.00 0.00 0.00 85 1003.3
20260510051004 49 29 4.0 7.0 0.00 0.00 0.00 85 1003.3
20260510050804 49 36 5.0 10.0 0.00 0.00 0.00 85 1003.5
20260510050605 49 39 5.0 10.0 0.00 0.00 0.00 85 1003.3
20260510050404 49 38 5.0 10.0 0.00 0.00 0.00 85 1003.5
20260510050204 49 35 5.0 10.0 0.00 0.00 0.00 85 1003.5
20260510050004 49 35 5.0 10.0 0.00 0.00 0.00 84 1003.6
20260510045805 49 6 4.0 9.0 0.00 0.00 0.00 84 1003.5
20260510045604 49 21 3.0 7.0 0.00 0.00 0.00 84 1003.5
20260510045404 49 26 4.0 7.0 0.00 0.00 0.00 84 1003.5
20260510045204 49 61 4.0 7.0 0.00 0.00 0.00 84 1003.5
20260510045004 49 53 4.0 7.0 0.00 0.00 0.00 84 1003.5
20260510044404 48 57 3.0 5.0 0.00 0.00 0.00 84 1003.5
20260510044204 48 42 3.0 5.0 0.00 0.00 0.00 84 1003.6
20260510043804 48 47 3.0 5.0 0.00 0.00 0.00 84 1003.5
20260510043604 48 55 3.0 6.0 0.00 0.00 0.00 84 1003.5
20260510043404 48 282 3.0 6.0 0.00 0.00 0.00 84 1003.4
20260510043205 48 314 3.0 6.0 0.00 0.00 0.00 84 1003.6
20260510043004 48 343 3.0 6.0 0.00 0.00 0.00 84 1003.5
20260510042804 48 341 3.0 6.0 0.00 0.00 0.00 84 1003.6
20260510042404 48 25 3.0 7.0 0.00 0.00 0.00 84 1003.6
20260510042204 48 7 4.0 7.0 0.00 0.00 0.00 84 1003.6
20260510042005 49 313 4.0 7.0 0.00 0.00 0.00 84 1003.5
20260510041404 49 356 4.0 6.0 0.00 0.00 0.00 83 1003.5
20260510041205 49 78 4.0 10.0 0.00 0.00 0.00 83 1003.5
20260510041004 49 75 4.0 10.0 0.00 0.00 0.00 84 1003.5
20260510040804 49 72 4.0 10.0 0.00 0.00 0.00 83 1003.6
20260510040604 49 48 4.0 10.0 0.00 0.00 0.00 83 1003.6
20260510040404 49 51 4.0 10.0 0.00 0.00 0.00 83 1003.6
20260510040204 49 354 3.0 9.0 0.00 0.00 0.00 83 1003.6
20260510040004 49 3 4.0 9.0 0.00 0.00 0.00 83 1003.6
20260510035804 49 341 3.0 9.0 0.00 0.00 0.00 83 1003.6
20260510035604 49 24 3.0 5.0 0.00 0.00 0.00 83 1003.6
20260510035204 49 347 2.0 5.0 0.00 0.00 0.00 83 1003.8
20260510034804 49 14 3.0 5.0 0.00 0.00 0.00 84 1003.6
20260510034404 49 4 4.0 8.0 0.00 0.00 0.00 84 1003.8
20260510034205 49 12 4.0 8.0 0.00 0.00 0.00 84 1003.7
20260510034004 49 315 4.0 8.0 0.00 0.00 0.00 84 1003.9
20260510033604 49 251 4.0 8.0 0.00 0.00 0.00 84 1003.8
20260510033204 49 301 4.0 8.0 0.00 0.00 0.00 84 1003.8
20260510032805 49 12 4.0 8.0 0.00 0.00 0.00 84 1003.8
20260510032604 49 348 4.0 8.0 0.00 0.00 0.00 84 1003.8
20260510032404 49 347 4.0 8.0 0.00 0.00 0.00 84 1003.8
20260510032204 49 21 3.0 8.0 0.00 0.00 0.00 84 1003.9
20260510031804 49 351 4.0 6.0 0.00 0.00 0.00 85 1003.8
20260510031404 49 21 5.0 9.0 0.00 0.00 0.00 85 1003.7
20260510031204 49 3 5.0 9.0 0.00 0.00 0.00 85 1003.8
20260510031004 49 17 5.0 9.0 0.00 0.00 0.00 85 1003.7
20260510030804 49 14 6.0 9.0 0.00 0.00 0.00 85 1003.8
20260510030604 49 6 5.0 9.0 0.00 0.00 0.00 85 1003.7
20260510030404 49 317 5.0 8.0 0.00 0.00 0.00 85 1003.9
20260510030204 49 316 6.0 8.0 0.00 0.00 0.00 85 1004.0
20260510030004 49 325 6.0 8.0 0.00 0.00 0.00 85 1003.9
20260510025805 49 332 5.0 8.0 0.00 0.00 0.00 85 1003.7
20260510025604 49 341 6.0 8.0 0.00 0.00 0.00 84 1004.0
20260510025404 49 353 5.0 8.0 0.00 0.00 0.00 84 1003.9
20260510025204 49 2 5.0 7.0 0.00 0.00 0.00 84 1004.0
20260510025005 49 4 5.0 7.0 0.00 0.00 0.00 84 1004.1
20260510024804 49 352 5.0 7.0 0.00 0.00 0.00 84 1004.0
20260510024604 49 7 5.0 7.0 0.00 0.00 0.00 84 1004.1
20260510024404 49 13 5.0 7.0 0.00 0.00 0.00 84 1004.2
20260510024004 49 16 4.0 9.0 0.00 0.00 0.00 84 1004.0
20260510023804 49 33 4.0 9.0 0.00 0.00 0.00 84 1004.1
20260510023604 49 24 4.0 9.0 0.00 0.00 0.00 84 1004.0
20260510023404 49 354 4.0 9.0 0.00 0.00 0.00 84 1004.0
20260510022804 49 302 4.0 8.0 0.00 0.00 0.00 84 1004.0
20260510022604 49 318 3.0 6.0 0.00 0.00 0.00 84 1004.0
20260510022405 49 306 3.0 6.0 0.00 0.00 0.00 84 1004.0
20260510022204 49 315 3.0 6.0 0.00 0.00 0.00 84 1004.0
20260510022004 49 314 3.0 5.0 0.00 0.00 0.00 84 1004.1
20260510021804 49 354 4.0 5.0 0.00 0.00 0.00 84 1004.0
20260510021605 49 339 3.0 5.0 0.00 0.00 0.00 84 1004.0
20260510021404 49 337 3.0 5.0 0.00 0.00 0.00 84 1004.0
20260510021204 49 320 4.0 5.0 0.00 0.00 0.00 84 1004.1
20260510021004 49 343 3.0 5.0 0.00 0.00 0.00 84 1004.2
20260510020404 49 331 3.0 5.0 0.00 0.00 0.00 84 1004.1
20260510020204 49 335 3.0 4.0 0.00 0.00 0.00 84 1004.3
20260510020005 49 329 3.0 6.0 0.00 0.00 0.00 84 1004.3
20260510015804 49 334 3.0 6.0 0.00 0.00 0.00 84 1004.2
20260510015604 49 330 3.0 6.0 0.00 0.00 0.00 84 1004.2
20260510015204 49 332 3.0 6.0 0.00 0.00 0.00 83 1004.3
20260510015004 49 8 3.0 5.0 0.00 0.00 0.00 83 1004.3
20260510014804 49 312 3.0 8.0 0.00 0.00 0.00 83 1004.2
20260510014604 49 305 3.0 8.0 0.00 0.00 0.00 83 1004.2
20260510014404 49 303 3.0 8.0 0.00 0.00 0.00 83 1004.2
20260510014204 49 330 3.0 8.0 0.00 0.00 0.00 83 1004.2
20260510014004 49 326 3.0 8.0 0.00 0.00 0.00 83 1004.3
20260510013804 49 355 3.0 5.0 0.00 0.00 0.00 83 1004.1
20260510013604 49 358 4.0 5.0 0.00 0.00 0.00 83 1004.3
20260510013404 49 349 4.0 5.0 0.00 0.00 0.00 83 1004.2
20260510013204 49 340 3.0 5.0 0.00 0.00 0.00 83 1004.2
20260510013004 49 335 4.0 5.0 0.00 0.00 0.00 83 1004.1
20260510012805 49 332 3.0 5.0 0.00 0.00 0.00 82 1004.3
20260510012604 49 3 4.0 8.0 0.00 0.00 0.00 82 1004.3
20260510012404 49 10 4.0 8.0 0.00 0.00 0.00 82 1004.2
20260510012204 49 45 3.0 8.0 0.00 0.00 0.00 82 1004.1
20260510012004 49 87 3.0 8.0 0.00 0.00 0.00 82 1004.2
20260510011604 49 348 2.0 4.0 0.00 0.00 0.00 81 1004.0
20260510011404 49 18 3.0 4.0 0.00 0.00 0.00 81 1004.2
20260510011205 49 52 3.0 6.0 0.00 0.00 0.00 81 1004.2
20260510011004 49 30 3.0 6.0 0.00 0.00 0.00 81 1004.1
20260510010804 49 14 4.0 8.0 0.00 0.00 0.00 81 1004.2
20260510010604 49 2 4.0 8.0 0.00 0.00 0.00 81 1004.1
20260510010404 49 3 5.0 8.0 0.00 0.00 0.00 81 1004.2
20260510010204 49 352 5.0 8.0 0.00 0.00 0.00 80 1004.2
20260510010004 49 338 5.0 8.0 0.00 0.00 0.00 80 1004.1
20260510005804 49 328 5.0 7.0 0.00 0.00 0.00 80 1004.2
20260510005604 49 328 4.0 7.0 0.00 0.00 0.00 79 1004.1
20260510005404 49 322 4.0 6.0 0.00 0.00 0.00 78 1004.3
20260510005004 49 339 4.0 5.0 0.00 0.00 0.00 77 1004.2
20260510004804 49 336 3.0 5.0 0.00 0.00 0.00 76 1004.2
20260510004604 49 334 3.0 5.0 0.00 0.00 0.00 75 1004.4
20260510004404 49 339 3.0 4.0 0.00 0.00 0.00 75 1004.2
20260510004204 49 337 3.0 4.0 0.00 0.00 0.00 75 1004.3
20260510004004 49 336 3.0 4.0 0.00 0.00 0.00 74 1004.2
20260510003804 49 353 3.0 5.0 0.00 0.00 0.00 74 1004.4
20260510003605 50 7 3.0 5.0 0.00 0.00 0.00 73 1004.3
20260510003404 50 358 3.0 5.0 0.00 0.00 0.00 73 1004.3
20260510003204 50 354 3.0 5.0 0.00 0.00 0.00 73 1004.4
20260510003004 50 338 3.0 5.0 0.00 0.00 0.00 72 1004.4
20260510002804 50 346 3.0 5.0 0.00 0.00 0.00 72 1004.4
20260510002604 50 356 3.0 5.0 0.00 0.00 0.00 72 1004.4
20260510002404 50 353 3.0 5.0 0.00 0.00 0.00 71 1004.3
20260510002204 50 358 3.0 5.0 0.00 0.00 0.00 71 1004.4
20260510002004 50 9 3.0 5.0 0.00 0.00 0.00 71 1004.4
20260510001804 50 345 3.0 5.0 0.00 0.00 0.00 71 1004.4
20260510001604 50 339 4.0 6.0 0.00 0.00 0.00 71 1004.6
20260510001404 50 336 4.0 6.0 0.00 0.00 0.00 70 1004.5
20260510001204 50 332 5.0 6.0 0.00 0.00 0.00 70 1004.5
20260510001004 50 325 4.0 6.0 0.00 0.00 0.00 70 1004.7
20260510000804 51 323 4.0 6.0 0.00 0.00 0.00 70 1004.5
20260510000604 51 309 4.0 6.0 0.00 0.00 0.00 70 1004.5
20260510000404 51 303 4.0 7.0 0.00 0.00 0.00 69 1004.4
20260510000204 51 307 4.0 7.0 0.00 0.00 0.00 69 1004.6
20260510000004 51 314 4.0 7.0 0.00 0.00 0.00 69 1004.7
20260509235804 51 313 4.0 7.0 0.00 0.00 0.00 69 1004.6
20260509235604 51 322 4.0 7.0 0.00 0.00 0.00 69 1004.6
20260509235404 51 322 4.0 6.0 0.00 0.00 0.00 69 1004.5
20260509235204 52 320 4.0 6.0 0.00 0.00 0.00 69 1004.5
20260509235004 52 324 4.0 6.0 0.00 0.00 0.00 69 1004.5
20260509234804 52 331 4.0 6.0 0.00 0.00 0.00 69 1004.4
20260509234604 52 334 4.0 7.0 0.00 0.00 0.00 69 1004.5
20260509234404 52 320 3.0 7.0 0.00 0.00 0.00 69 1004.7
20260509234204 52 332 3.0 7.0 0.00 0.00 0.00 69 1004.5
20260509234004 52 2 3.0 7.0 0.00 0.00 0.00 69 1004.4
20260509233804 52 3 3.0 7.0 0.00 0.00 0.00 69 1004.5
20260509233604 52 344 3.0 7.0 0.00 0.00 0.00 69 1004.6
20260509233403 52 6 3.0 4.0 0.00 0.00 0.00 69 1004.4
20260509233204 52 356 3.0 4.0 0.00 0.00 0.00 68 1004.5
20260509233004 52 323 3.0 4.0 0.00 0.00 0.00 68 1004.6
20260509232804 52 324 3.0 3.0 0.00 0.00 0.00 68 1004.4
20260509232604 52 313 2.0 3.0 0.00 0.00 0.00 68 1004.4
20260509232404 53 284 2.0 4.0 0.00 0.00 0.00 68 1004.6
20260509232204 52 24 2.0 4.0 0.00 0.00 0.00 68 1004.7
20260509232004 53 67 2.0 4.0 0.00 0.00 0.00 68 1004.7
20260509231804 53 35 2.0 4.0 0.00 0.00 0.00 68 1004.6
20260509231604 53 32 3.0 4.0 0.00 0.00 0.00 67 1004.6
20260509231405 53 15 3.0 4.0 0.00 0.00 0.00 67 1004.6
20260509231204 53 351 3.0 4.0 0.00 0.00 0.00 67 1004.7
20260509230803 53 256 3.0 4.0 0.00 0.00 0.00 66 1004.6
20260509230604 53 245 3.0 4.0 0.00 0.00 0.00 66 1004.6
20260509230404 53 221 3.0 4.0 0.00 0.00 0.00 66 1004.6
20260509230005 53 80 3.0 5.0 0.00 0.00 0.00 65 1004.5
20260509225604 53 20 3.0 5.0 0.00 0.00 0.00 64 1004.5
20260509225404 53 10 3.0 5.0 0.00 0.00 0.00 64 1004.4
20260509225204 53 21 3.0 5.0 0.00 0.00 0.00 64 1004.4
20260509225004 53 2 3.0 4.0 0.00 0.00 0.00 64 1004.7
20260509224804 53 40 3.0 4.0 0.00 0.00 0.00 64 1004.6
20260509224604 53 94 3.0 4.0 0.00 0.00 0.00 63 1004.6
20260509224404 53 165 2.0 3.0 0.00 0.00 0.00 63 1004.6
20260509224005 53 184 2.0 4.0 0.00 0.00 0.00 63 1004.5
20260509223604 53 5 2.0 4.0 0.00 0.00 0.00 62 1004.4
20260509223204 53 351 2.0 4.0 0.00 0.00 0.00 62 1004.6
20260509222804 53 356 2.0 3.0 0.00 0.00 0.00 62 1004.8
20260509222604 53 353 2.0 3.0 0.00 0.00 0.00 62 1004.7
20260509222404 53 2 2.0 3.0 0.00 0.00 0.00 61 1004.6
20260509222204 54 9 1.0 3.0 0.00 0.00 0.00 61 1004.7
20260509222004 54 45 1.0 2.0 0.00 0.00 0.00 61 1004.7
20260509221804 54 76 1.0 2.0 0.00 0.00 0.00 61 1004.7
20260509221604 54 117 1.0 2.0 0.00 0.00 0.00 61 1004.7
20260509221404 54 105 1.0 2.0 0.00 0.00 0.00 61 1004.7
20260509221204 54 98 2.0 2.0 0.00 0.00 0.00 61 1004.6
20260509221004 54 89 2.0 3.0 0.00 0.00 0.00 61 1004.7
20260509220804 54 92 1.0 3.0 0.00 0.00 0.00 60 1004.6
20260509220604 54 88 1.0 3.0 0.00 0.00 0.00 60 1004.7
20260509220404 54 107 2.0 3.0 0.00 0.00 0.00 60 1004.7
20260509220204 54 98 2.0 3.0 0.00 0.00 0.00 60 1004.5
20260509220004 54 108 1.0 2.0 0.00 0.00 0.00 60 1004.4
20260509215804 54 144 2.0 2.0 0.00 0.00 0.00 60 1004.4
20260509215604 54 111 2.0 2.0 0.00 0.00 0.00 60 1004.3
20260509215404 54 82 2.0 4.0 0.00 0.00 0.00 60 1004.3
20260509215204 54 124 2.0 4.0 0.00 0.00 0.00 59 1004.2
20260509215004 54 126 2.0 4.0 0.00 0.00 0.00 59 1004.2
20260509214804 54 69 2.0 4.0 0.00 0.00 0.00 58 1004.1
20260509214604 54 46 2.0 4.0 0.00 0.00 0.00 58 1004.2
20260509214404 54 58 2.0 4.0 0.00 0.00 0.00 58 1004.2
20260509214204 54 52 2.0 2.0 0.00 0.00 0.00 57 1004.2
20260509214004 54 41 2.0 2.0 0.00 0.00 0.00 57 1004.2
20260509213404 54 63 2.0 2.0 0.00 0.00 0.00 53 1004.2
20260509213204 54 58 2.0 2.0 0.00 0.00 0.00 53 1004.2
20260509213004 54 81 2.0 4.0 0.00 0.00 0.00 53 1004.0
20260509212804 55 86 2.0 4.0 0.00 0.00 0.00 53 1004.1
20260509212604 55 101 2.0 4.0 0.00 0.00 0.00 52 1003.9
20260509212404 55 104 2.0 4.0 0.00 0.00 0.00 52 1004.0
20260509212204 55 101 2.0 4.0 0.00 0.00 0.00 52 1004.0
20260509211804 55 73 2.0 4.0 0.00 0.00 0.00 52 1003.9
20260509211604 55 66 2.0 4.0 0.00 0.00 0.00 52 1004.0
20260509211404 55 52 2.0 4.0 0.00 0.00 0.00 52 1004.0
20260509211203 55 40 2.0 4.0 0.00 0.00 0.00 52 1003.8
20260509210604 55 57 1.0 2.0 0.00 0.00 0.00 53 1004.0
20260509210403 55 66 1.0 2.0 0.00 0.00 0.00 53 1004.0
20260509210204 55 75 1.0 2.0 0.00 0.00 0.00 53 1004.0
20260509210004 55 75 0.0 2.0 0.00 0.00 0.00 53 1004.1
20260509205804 55 52 0.0 2.0 0.00 0.00 0.00 53 1004.1
20260509205604 55 346 1.0 2.0 0.00 0.00 0.00 53 1003.9
20260509205404 55 349 1.0 2.0 0.00 0.00 0.00 53 1004.0
20260509205204 55 20 1.0 2.0 0.00 0.00 0.00 53 1004.1
20260509205004 56 351 1.0 2.0 0.00 0.00 0.00 53 1004.0
20260509204804 56 46 1.0 2.0 0.00 0.00 0.00 52 1003.8
20260509204605 56 90 1.0 2.0 0.00 0.00 0.00 52 1003.9
20260509204404 56 112 1.0 2.0 0.00 0.00 0.00 52 1003.8
20260509204004 56 39 1.0 2.0 0.00 0.00 0.00 52 1003.8
20260509203604 56 27 0.0 2.0 0.00 0.00 0.00 52 1003.9
20260509203404 56 56 0.0 2.0 0.00 0.00 0.00 52 1003.7
20260509202811 56 135 0.0 1.0 0.00 0.00 0.00 51 1003.7
20260509202605 56 135 0.0 1.0 0.00 0.00 0.00 51 1003.7
20260509202406 56 0 0.0 0.0 0.00 0.00 0.00 51 1003.7
20260509202208 56 0 0.0 0.0 0.00 0.00 0.00 51 1003.8
20260509202009 56 45 0.0 1.0 0.00 0.00 0.00 51 1003.7
20260509201823 56 45 0.0 1.0 0.00 0.00 0.00 51 1003.7
20260509201404 57 71 0.0 1.0 0.00 0.00 0.00 50 1003.7
20260509201008 57 82 0.0 1.0 0.00 0.00 0.00 50 1003.6
20260509200808 57 93 0.0 1.0 0.00 0.00 0.00 50 1003.5
20260509200610 57 51 0.0 1.0 0.00 0.00 0.00 50 1003.5
20260509200410 57 45 0.0 1.0 0.00 0.00 0.00 50 1003.7
20260509200215 57 45 0.0 2.0 0.00 0.00 0.00 50 1003.5
20260509195806 57 45 0.0 2.0 0.00 0.00 0.00 50 1003.6
20260509195617 57 45 0.0 2.0 0.00 0.00 0.00 50 1003.5
20260509195411 57 45 0.0 2.0 0.00 0.00 0.00 50 1003.6
20260509195206 57 0 0.0 0.0 0.00 0.00 0.00 50 1003.5
20260509194806 58 0 0.0 0.0 0.00 0.00 0.00 50 1003.5
20260509194608 58 0 0.0 0.0 0.00 0.00 0.00 50 1003.5
20260509194414 58 0 0.0 0.0 0.00 0.00 0.00 50 1003.4
20260509194009 58 0 0.0 0.0 0.00 0.00 0.00 50 1003.4
20260509193811 58 0 0.0 0.0 0.00 0.00 0.00 50 1003.3
20260509193405 58 0 0.0 0.0 0.00 0.00 0.00 50 1003.3
20260509193009 59 0 0.0 0.0 0.00 0.00 0.00 49 1003.5
20260509192808 59 0 0.0 0.0 0.00 0.00 0.00 49 1003.5
20260509192403 59 0 0.0 0.0 0.00 0.00 0.00 49 1003.5
20260509192204 59 0 0.0 0.0 0.00 0.00 0.00 49 1003.3
20260509191804 60 0 0.0 0.0 0.00 0.00 0.00 48 1003.5
20260509191604 60 0 0.0 0.0 0.00 0.00 0.00 48 1003.4
20260509191403 60 0 0.0 0.0 0.00 0.00 0.00 48 1003.3
20260509191204 60 0 0.0 0.0 0.00 0.00 0.00 47 1003.5
20260509191004 60 0 0.0 0.0 0.00 0.00 0.00 47 1003.5
20260509190804 60 0 0.0 0.0 0.00 0.00 0.00 46 1003.4
20260509190603 60 0 0.0 0.0 0.00 0.00 0.00 46 1003.5
20260509190404 61 0 0.0 0.0 0.00 0.00 0.00 46 1003.3
20260509190204 61 205 0.0 4.0 0.00 0.00 0.00 46 1003.2
20260509190004 61 206 1.0 4.0 0.00 0.00 0.00 46 1003.1
20260509185804 61 192 1.0 4.0 0.00 0.00 0.00 46 1003.2
20260509185603 61 170 1.0 4.0 0.00 0.00 0.00 45 1003.1
20260509185404 61 136 2.0 4.0 0.00 0.00 0.00 45 1003.1
20260509185203 61 99 1.0 4.0 0.00 0.00 0.00 45 1003.2
20260509185004 62 93 1.0 3.0 0.00 0.00 0.00 44 1003.0
20260509184804 62 122 1.0 3.0 0.00 0.00 0.00 44 1003.0
20260509184603 62 99 2.0 3.0 0.00 0.00 0.00 44 1003.0
20260509184404 62 26 1.0 3.0 0.00 0.00 0.00 44 1003.1
20260509184204 62 201 1.0 2.0 0.00 0.00 0.00 44 1003.1
20260509183804 62 295 2.0 2.0 0.00 0.00 0.00 44 1002.8
20260509183604 62 227 2.0 4.0 0.00 0.00 0.00 44 1002.9
20260509183404 62 221 2.0 4.0 0.00 0.00 0.00 43 1002.9
20260509183204 62 153 2.0 4.0 0.00 0.00 0.00 43 1003.0
20260509182803 63 182 2.0 4.0 0.00 0.00 0.00 43 1002.9
20260509182605 63 182 1.0 3.0 0.00 0.00 0.00 43 1002.9
20260509182404 63 184 1.0 3.0 0.00 0.00 0.00 42 1003.0
20260509182203 63 230 1.0 4.0 0.00 0.00 0.00 42 1002.8
20260509182004 63 222 2.0 4.0 0.00 0.00 0.00 42 1002.8
20260509181804 63 202 2.0 4.0 0.00 0.00 0.00 42 1003.0
20260509181604 63 185 2.0 4.0 0.00 0.00 0.00 43 1002.9
20260509181403 63 155 3.0 4.0 0.00 0.00 0.00 42 1002.7
20260509181204 63 136 2.0 4.0 0.00 0.00 0.00 42 1002.8
20260509181004 63 125 2.0 4.0 0.00 0.00 0.00 42 1002.8
20260509180804 63 173 3.0 8.0 0.00 0.00 0.00 41 1002.9
20260509180604 64 213 2.0 8.0 0.00 0.00 0.00 40 1002.8
20260509180204 64 203 2.0 8.0 0.00 0.00 0.00 40 1002.7
20260509180004 64 195 2.0 8.0 0.00 0.00 0.00 40 1002.8
20260509175804 64 145 1.0 2.0 0.00 0.00 0.00 40 1002.8
20260509175604 64 140 1.0 2.0 0.00 0.00 0.00 40 1002.7
20260509175404 64 161 1.0 5.0 0.00 0.00 0.00 40 1002.7
20260509175203 64 99 2.0 5.0 0.00 0.00 0.00 40 1002.8
20260509175004 64 95 2.0 5.0 0.00 0.00 0.00 40 1002.8
20260509174404 64 81 2.0 5.0 0.00 0.00 0.00 39 1002.8
20260509174204 64 68 2.0 5.0 0.00 0.00 0.00 40 1002.6
20260509174003 64 77 3.0 5.0 0.00 0.00 0.00 40 1002.6
20260509173803 64 72 3.0 5.0 0.00 0.00 0.00 39 1002.6
20260509173604 64 62 3.0 5.0 0.00 0.00 0.00 37 1002.8
20260509173204 65 40 3.0 5.0 0.00 0.00 0.00 39 1002.7
20260509173003 65 4 3.0 5.0 0.00 0.00 0.00 40 1002.8
20260509172804 65 12 3.0 5.0 0.00 0.00 0.00 40 1002.7
20260509172604 65 45 3.0 5.0 0.00 0.00 0.00 40 1002.8
20260509172404 65 69 3.0 5.0 0.00 0.00 0.00 40 1002.9
20260509172003 65 100 2.0 4.0 0.00 0.00 0.00 40 1003.0
20260509171804 65 134 2.0 4.0 0.00 0.00 0.00 41 1003.1
20260509171604 64 149 2.0 3.0 0.00 0.00 0.00 41 1003.0
20260509171404 64 171 2.0 3.0 0.00 0.00 0.00 41 1003.2
20260509171004 65 160 2.0 5.0 0.00 0.00 0.00 41 1002.9
20260509170803 65 166 2.0 5.0 0.00 0.00 0.00 41 1003.0
20260509170604 65 163 3.0 5.0 0.00 0.00 0.00 41 1003.1
20260509170404 65 169 3.0 5.0 0.00 0.00 0.00 41 1003.1
20260509170204 65 170 3.0 4.0 0.00 0.00 0.00 41 1003.1
20260509170004 65 172 3.0 4.0 0.00 0.00 0.00 41 1003.2
20260509165803 65 174 3.0 4.0 0.00 0.00 0.00 41 1003.2
20260509165604 65 183 3.0 4.0 0.00 0.00 0.00 41 1003.1
20260509165404 65 167 3.0 4.0 0.00 0.00 0.00 40 1003.1
20260509165204 66 161 3.0 4.0 0.00 0.00 0.00 40 1003.2
20260509165003 66 161 3.0 4.0 0.00 0.00 0.00 40 1003.1
20260509164804 66 166 3.0 4.0 0.00 0.00 0.00 40 1003.1
20260509164604 66 167 3.0 4.0 0.00 0.00 0.00 40 1003.1
20260509164203 67 190 3.0 4.0 0.00 0.00 0.00 40 1003.1
20260509164004 67 190 3.0 5.0 0.00 0.00 0.00 40 1003.1
20260509163403 67 103 3.0 5.0 0.00 0.00 0.00 40 1003.1
20260509163004 67 122 3.0 5.0 0.00 0.00 0.00 38 1003.2
20260509162804 68 148 3.0 5.0 0.00 0.00 0.00 40 1003.1
20260509162604 68 167 4.0 5.0 0.00 0.00 0.00 40 1003.2
20260509162404 68 173 4.0 5.0 0.00 0.00 0.00 40 1003.2
20260509162204 68 179 4.0 5.0 0.00 0.00 0.00 40 1003.1
20260509162004 68 177 3.0 5.0 0.00 0.00 0.00 40 1003.2
20260509161603 68 199 3.0 5.0 0.00 0.00 0.00 40 1003.2
20260509161004 68 176 4.0 5.0 0.00 0.00 0.00 41 1003.2
20260509160403 68 154 3.0 5.0 0.00 0.00 0.00 40 1003.1
20260509160204 68 158 3.0 5.0 0.00 0.00 0.00 40 1003.0
20260509160004 69 166 3.0 5.0 0.00 0.00 0.00 40 1003.2
20260509155803 69 161 3.0 5.0 0.00 0.00 0.00 40 1003.3
20260509155604 69 160 3.0 5.0 0.00 0.00 0.00 40 1003.2
20260509155403 69 187 3.0 4.0 0.00 0.00 0.00 40 1003.1
20260509155204 69 194 3.0 3.0 0.00 0.00 0.00 39 1003.1
20260509154604 69 200 2.0 4.0 0.00 0.00 0.00 40 1003.3
20260509154403 69 194 2.0 4.0 0.00 0.00 0.00 40 1003.3
20260509154204 69 175 3.0 4.0 0.00 0.00 0.00 39 1003.2
20260509154004 69 149 3.0 4.0 0.00 0.00 0.00 39 1003.2
20260509153803 69 162 3.0 4.0 0.00 0.00 0.00 39 1003.2
20260509153404 69 144 3.0 5.0 0.00 0.00 0.00 39 1003.3
20260509153203 69 132 3.0 5.0 0.00 0.00 0.00 38 1003.2
20260509153004 69 153 3.0 5.0 0.00 0.00 0.00 38 1003.2
20260509152803 69 167 3.0 5.0 0.00 0.00 0.00 37 1003.2
20260509152603 69 190 3.0 4.0 0.00 0.00 0.00 36 1003.2
20260509152404 69 192 3.0 5.0 0.00 0.00 0.00 36 1003.2
20260509152204 70 183 4.0 6.0 0.00 0.00 0.00 37 1003.1
20260509152003 70 185 4.0 6.0 0.00 0.00 0.00 37 1003.1
20260509151804 70 176 3.0 6.0 0.00 0.00 0.00 37 1003.0
20260509151604 70 171 3.0 6.0 0.00 0.00 0.00 36 1003.0
20260509151403 70 175 3.0 6.0 0.00 0.00 0.00 36 1003.1
20260509151203 70 183 2.0 4.0 0.00 0.00 0.00 35 1003.1
20260509150804 70 177 2.0 4.0 0.00 0.00 0.00 36 1003.0
20260509150604 70 201 3.0 5.0 0.00 0.00 0.00 35 1002.9
20260509150204 70 208 3.0 5.0 0.00 0.00 0.00 35 1003.0
20260509150003 70 221 3.0 5.0 0.00 0.00 0.00 33 1003.0
20260509145804 70 204 4.0 5.0 0.00 0.00 0.00 33 1003.0
20260509145604 70 122 3.0 4.0 0.00 0.00 0.00 33 1002.9
20260509145403 70 61 3.0 4.0 0.00 0.00 0.00 34 1002.8
20260509145204 70 58 3.0 4.0 0.00 0.00 0.00 34 1002.8
20260509145004 70 44 3.0 4.0 0.00 0.00 0.00 33 1002.8
20260509144603 70 30 3.0 4.0 0.00 0.00 0.00 33 1002.8
20260509144404 70 73 3.0 4.0 0.00 0.00 0.00 34 1002.7
20260509144203 70 95 3.0 4.0 0.00 0.00 0.00 34 1002.8
20260509144004 70 116 3.0 4.0 0.00 0.00 0.00 33 1002.6
20260509143803 70 112 3.0 4.0 0.00 0.00 0.00 33 1002.7
20260509143603 70 94 3.0 4.0 0.00 0.00 0.00 33 1002.9
20260509143204 70 15 3.0 6.0 0.00 0.00 0.00 36 1002.6
20260509143003 70 34 3.0 6.0 0.00 0.00 0.00 36 1002.7
20260509142804 70 31 3.0 6.0 0.00 0.00 0.00 36 1002.8
20260509142604 70 21 3.0 6.0 0.00 0.00 0.00 36 1002.7
20260509142403 70 11 3.0 6.0 0.00 0.00 0.00 35 1002.7
20260509142004 70 143 2.0 4.0 0.00 0.00 0.00 36 1002.6
20260509141603 71 98 3.0 5.0 0.00 0.00 0.00 36 1002.7
20260509141403 71 139 3.0 5.0 0.00 0.00 0.00 37 1002.8
20260509141204 71 157 3.0 5.0 0.00 0.00 0.00 37 1002.9
20260509140804 71 151 3.0 5.0 0.00 0.00 0.00 37 1003.1
20260509140603 71 146 3.0 4.0 0.00 0.00 0.00 38 1002.9
20260509140404 71 101 4.0 7.0 0.00 0.00 0.00 37 1003.0
20260509140204 71 72 3.0 7.0 0.00 0.00 0.00 35 1003.0
20260509140004 71 75 3.0 7.0 0.00 0.00 0.00 34 1002.9
20260509135604 71 19 4.0 7.0 0.00 0.00 0.00 33 1003.0
20260509135404 71 40 3.0 6.0 0.00 0.00 0.00 35 1003.0
20260509135203 71 38 3.0 6.0 0.00 0.00 0.00 36 1003.1
20260509135004 71 18 3.0 6.0 0.00 0.00 0.00 36 1003.1
20260509134804 71 31 2.0 6.0 0.00 0.00 0.00 39 1003.2
20260509134603 71 46 2.0 4.0 0.00 0.00 0.00 37 1003.0
20260509134403 71 43 3.0 4.0 0.00 0.00 0.00 36 1003.0
20260509134004 71 56 3.0 4.0 0.00 0.00 0.00 34 1003.0
20260509133803 71 98 3.0 4.0 0.00 0.00 0.00 35 1003.2
20260509133404 71 85 3.0 5.0 0.00 0.00 0.00 34 1003.1
20260509133204 71 98 4.0 6.0 0.00 0.00 0.00 34 1003.1
20260509133004 72 84 4.0 6.0 0.00 0.00 0.00 34 1003.1
20260509132804 72 75 4.0 6.0 0.00 0.00 0.00 34 1002.9
20260509132604 72 77 4.0 6.0 0.00 0.00 0.00 34 1003.2
20260509132403 72 94 3.0 6.0 0.00 0.00 0.00 35 1003.1
20260509132204 72 281 3.0 6.0 0.00 0.00 0.00 34 1003.1
20260509132003 72 194 2.0 4.0 0.00 0.00 0.00 37 1003.0
20260509131803 72 171 2.0 4.0 0.00 0.00 0.00 38 1003.0
20260509131604 72 145 2.0 5.0 0.00 0.00 0.00 38 1003.1
20260509131404 72 202 3.0 5.0 0.00 0.00 0.00 37 1003.1
20260509131003 72 100 3.0 5.0 0.00 0.00 0.00 36 1003.2
20260509130804 72 149 3.0 5.0 0.00 0.00 0.00 34 1003.1
20260509130604 72 136 3.0 5.0 0.00 0.00 0.00 34 1003.3
20260509130404 72 112 3.0 4.0 0.00 0.00 0.00 32 1003.3
20260509130203 72 110 3.0 4.0 0.00 0.00 0.00 33 1003.2
20260509130004 72 98 3.0 4.0 0.00 0.00 0.00 36 1003.3
20260509125804 72 68 3.0 4.0 0.00 0.00 0.00 35 1003.4
20260509125404 71 41 3.0 4.0 0.00 0.00 0.00 36 1003.4
20260509125204 71 47 3.0 4.0 0.00 0.00 0.00 36 1003.3